When you browse on this site, cookies collect data to enhance your experience and personalize the content and advertising you see.
Visit our Privacy Policy to learn more. By continuing to use the site, you agree to this use of cookies and data.
  • In France
  • List of Countries
  • For 7 days
  • Water Temperature
  • Weather Map
  • Weather Widgets
  • user-avatar
    Login

    Hourly Weather Burma

    Today, 2 June, Tuesday

    Time Temperature Precipitation Wind Pressure Humidity
    00:00 +8°C° 0 mm 3 mps 556 mmHg 57%
    01:00 +8°C° 0 mm 3 mps 556 mmHg 56%
    02:00 +8°C° 0 mm 2 mps 556 mmHg 54%
    03:00 +8°C° 0 mm 3 mps 556 mmHg 53%
    04:00 +8°C° 0 mm 3 mps 556 mmHg 52%
    05:00 +8°C° 0 mm 3 mps 555 mmHg 52%
    06:00 +9°C° 0 mm 3 mps 556 mmHg 51%
    07:00 +12°C° 0 mm 2 mps 558 mmHg 50%
    08:00 +14°C° 0 mm 1 mps 559 mmHg 50%
    09:00 +15°C° 0 mm 1 mps 559 mmHg 47%
    10:00 +16°C° 0 mm 1 mps 560 mmHg 44%
    11:00 +16°C° 0 mm 1 mps 560 mmHg 42%
    12:00 +16°C° 0.1 mm 1 mps 560 mmHg 43%
    13:00 +16°C° 0.1 mm 1 mps 559 mmHg 45%
    14:00 +16°C° 0.1 mm 1 mps 559 mmHg 47%
    15:00 +16°C° 0.2 mm 1 mps 559 mmHg 49%
    16:00 +15°C° 0.2 mm 2 mps 559 mmHg 51%
    17:00 +15°C° 0.2 mm 2 mps 559 mmHg 53%
    18:00 +13°C° 0.1 mm 3 mps 558 mmHg 57%
    19:00 +11°C° 0.1 mm 3 mps 557 mmHg 60%
    20:00 +10°C° 0.1 mm 4 mps 557 mmHg 63%
    21:00 +10°C° 0 mm 4 mps 557 mmHg 62%
    22:00 +8°C° 0 mm 4 mps 556 mmHg 61%
    23:00 +9°C° 0 mm 3 mps 556 mmHg 60%

    Tomorrow, 3 June, Wednesday

    Time Temperature Precipitation Wind Pressure Humidity
    00:00 +9°C° 0 mm 3 mps 556 mmHg 60%
    01:00 +9°C° 0 mm 3 mps 556 mmHg 60%
    02:00 +8°C° 0 mm 3 mps 555 mmHg 61%
    03:00 +8°C° 0 mm 3 mps 555 mmHg 60%
    04:00 +8°C° 0 mm 3 mps 555 mmHg 59%
    05:00 +8°C° 0 mm 3 mps 555 mmHg 58%
    06:00 +10°C° 0 mm 2 mps 556 mmHg 54%
    07:00 +13°C° 0 mm 1 mps 557 mmHg 49%
    08:00 +15°C° 0 mm 1 mps 558 mmHg 45%
    09:00 +16°C° 0 mm 1 mps 559 mmHg 41%
    10:00 +18°C° 0 mm 1 mps 559 mmHg 38%
    11:00 +18°C° 0 mm 2 mps 560 mmHg 34%
    12:00 +18°C° 0 mm 2 mps 560 mmHg 34%
    13:00 +19°C° 0 mm 2 mps 560 mmHg 35%
    14:00 +19°C° 0 mm 2 mps 560 mmHg 35%
    15:00 +19°C° 0 mm 2 mps 560 mmHg 35%
    16:00 +20°C° 0 mm 1 mps 559 mmHg 35%
    17:00 +20°C° 0 mm 1 mps 559 mmHg 35%
    18:00 +18°C° 0 mm 1 mps 558 mmHg 43%
    19:00 +15°C° 0 mm 1 mps 557 mmHg 50%
    20:00 +13°C° 0 mm 1 mps 556 mmHg 57%
    21:00 +12°C° 0 mm 1 mps 556 mmHg 57%
    22:00 +12°C° 0 mm 1 mps 556 mmHg 56%
    23:00 +11°C° 0 mm 1 mps 556 mmHg 56%

    Day after tomorrow, 4 June, Thursday

    Time Temperature Precipitation Wind Pressure Humidity
    00:00 +11°C° 0 mm 1 mps 555 mmHg 55%
    01:00 +11°C° 0 mm 1 mps 555 mmHg 55%
    02:00 +10°C° 0 mm 1 mps 555 mmHg 54%
    03:00 +10°C° 0 mm 1 mps 555 mmHg 54%
    04:00 +10°C° 0 mm 1 mps 555 mmHg 54%
    05:00 +9°C° 0 mm 2 mps 554 mmHg 54%
    06:00 +12°C° 0 mm 1 mps 556 mmHg 49%
    07:00 +14°C° 0 mm 1 mps 557 mmHg 43%
    08:00 +15°C° 0 mm 0 mps 559 mmHg 38%
    09:00 +18°C° 0 mm 1 mps 559 mmHg 36%
    10:00 +19°C° 0 mm 1 mps 560 mmHg 34%
    11:00 +19°C° 0 mm 2 mps 560 mmHg 32%
    12:00 +20°C° 0 mm 2 mps 560 mmHg 31%
    13:00 +20°C° 0 mm 2 mps 560 mmHg 30%
    14:00 +21°C° 0 mm 2 mps 560 mmHg 30%
    15:00 +21°C° 0 mm 2 mps 560 mmHg 30%
    16:00 +21°C° 0 mm 2 mps 560 mmHg 30%
    17:00 +21°C° 0 mm 2 mps 560 mmHg 30%
    18:00 +19°C° 0 mm 2 mps 559 mmHg 36%
    19:00 +16°C° 0 mm 2 mps 558 mmHg 42%
    20:00 +14°C° 0 mm 1 mps 557 mmHg 49%
    21:00 +14°C° 0 mm 2 mps 557 mmHg 47%
    22:00 +13°C° 0 mm 3 mps 557 mmHg 46%
    23:00 +12°C° 0 mm 4 mps 558 mmHg 45%

    5 June, Friday

    Time Temperature Precipitation Wind Pressure Humidity
    00:00 +12°C° 0 mm 4 mps 557 mmHg 45%
    01:00 +11°C° 0 mm 4 mps 557 mmHg 45%
    02:00 +11°C° 0 mm 4 mps 557 mmHg 45%
    03:00 +11°C° 0 mm 4 mps 556 mmHg 44%
    04:00 +11°C° 0 mm 4 mps 556 mmHg 43%
    05:00 +10°C° 0 mm 4 mps 556 mmHg 41%
    06:00 +12°C° 0 mm 3 mps 558 mmHg 39%
    07:00 +16°C° 0 mm 3 mps 559 mmHg 37%
    08:00 +18°C° 0 mm 2 mps 560 mmHg 35%
    09:00 +19°C° 0 mm 2 mps 561 mmHg 31%
    10:00 +20°C° 0 mm 2 mps 561 mmHg 27%
    11:00 +21°C° 0 mm 2 mps 562 mmHg 23%
    12:00 +21°C° 0 mm 2 mps 562 mmHg 23%
    13:00 +23°C° 0 mm 2 mps 562 mmHg 23%
    14:00 +22°C° 0 mm 3 mps 562 mmHg 23%
    15:00 +23°C° 0 mm 2 mps 562 mmHg 24%
    16:00 +23°C° 0 mm 2 mps 561 mmHg 25%
    17:00 +23°C° 0 mm 2 mps 561 mmHg 26%
    18:00 +20°C° 0 mm 2 mps 560 mmHg 31%
    19:00 +18°C° 0 mm 3 mps 559 mmHg 35%
    20:00 +16°C° 0 mm 3 mps 558 mmHg 40%
    21:00 +14°C° 0 mm 3 mps 558 mmHg 40%
    22:00 +14°C° 0 mm 4 mps 558 mmHg 40%
    23:00 +13°C° 0 mm 4 mps 558 mmHg 41%

    6 June, Saturday

    Time Temperature Precipitation Wind Pressure Humidity
    00:00 +13°C° 0 mm 4 mps 558 mmHg 41%
    01:00 +12°C° 0 mm 4 mps 557 mmHg 41%
    02:00 +12°C° 0 mm 4 mps 557 mmHg 42%
    03:00 +11°C° 0 mm 4 mps 557 mmHg 42%
    04:00 +11°C° 0 mm 4 mps 557 mmHg 43%
    05:00 +11°C° 0 mm 4 mps 556 mmHg 44%
    06:00 +13°C° 0 mm 3 mps 558 mmHg 40%
    07:00 +16°C° 0 mm 3 mps 559 mmHg 37%
    08:00 +18°C° 0 mm 2 mps 560 mmHg 34%
    09:00 +19°C° 0 mm 2 mps 561 mmHg 30%
    10:00 +20°C° 0 mm 2 mps 561 mmHg 26%
    11:00 +21°C° 0 mm 2 mps 562 mmHg 23%
    12:00 +23°C° 0 mm 2 mps 562 mmHg 23%
    13:00 +23°C° 0 mm 2 mps 562 mmHg 22%
    14:00 +23°C° 0 mm 2 mps 562 mmHg 22%
    15:00 +23°C° 0 mm 2 mps 562 mmHg 22%
    16:00 +23°C° 0 mm 2 mps 561 mmHg 23%
    17:00 +23°C° 0 mm 2 mps 561 mmHg 23%
    18:00 +20°C° 0 mm 2 mps 560 mmHg 28%
    19:00 +19°C° 0 mm 1 mps 559 mmHg 33%
    20:00 +15°C° 0 mm 1 mps 558 mmHg 39%
    21:00 +15°C° 0 mm 2 mps 558 mmHg 38%
    22:00 +14°C° 0 mm 2 mps 558 mmHg 37%
    23:00 +13°C° 0 mm 3 mps 558 mmHg 36%

    7 June, Sunday

    Time Temperature Precipitation Wind Pressure Humidity
    00:00 +13°C° 0 mm 2 mps 557 mmHg 38%
    01:00 +13°C° 0 mm 2 mps 557 mmHg 40%
    02:00 +13°C° 0 mm 2 mps 557 mmHg 42%
    03:00 +12°C° 0 mm 2 mps 556 mmHg 44%
    04:00 +12°C° 0 mm 2 mps 556 mmHg 46%
    05:00 +12°C° 0 mm 2 mps 556 mmHg 48%
    06:00 +14°C° 0 mm 1 mps 557 mmHg 44%
    07:00 +16°C° 0 mm 1 mps 559 mmHg 41%
    08:00 +19°C° 0 mm 1 mps 560 mmHg 37%
    09:00 +20°C° 0.1 mm 1 mps 560 mmHg 36%
    10:00 +19°C° 0.1 mm 2 mps 561 mmHg 36%
    11:00 +20°C° 0.1 mm 3 mps 561 mmHg 35%
    12:00 +20°C° 0.5 mm 3 mps 561 mmHg 36%
    13:00 +20°C° 0.5 mm 3 mps 561 mmHg 37%
    14:00 +20°C° 0.5 mm 2 mps 560 mmHg 37%
    15:00 +20°C° 0.5 mm 2 mps 560 mmHg 37%
    16:00 +21°C° 0.5 mm 1 mps 560 mmHg 38%
    17:00 +20°C° 0.5 mm 1 mps 559 mmHg 38%
    18:00 +17°C° 0.5 mm 2 mps 558 mmHg 46%
    19:00 +16°C° 0.5 mm 3 mps 557 mmHg 54%
    20:00 +13°C° 0.5 mm 3 mps 556 mmHg 62%
    21:00 +13°C° 0.2 mm 3 mps 556 mmHg 60%
    22:00 +14°C° 0.2 mm 2 mps 556 mmHg 58%
    23:00 +14°C° 0.2 mm 2 mps 556 mmHg 56%
    Show more